RH
33 33 34 35 37 40 44 47 49 51 54 58 64 69 73 73 72 68 63 59 56 54 53 53 54 53 52 51 50 51 52 53 55 57 60 61 62 62 62 61 60 59 59 60 61 63 65 67 68 69 69 69 69 70 71 71 69 67 65 62 60 57 55 52 48 45 43 42 43 45 48 51 54 57 60 60 59 59 60 60 57 52 45 39 35 33
35 34 33 34 36 37 39 42 42 44 46 50 55 61 68 73 75 74 71 64 59 56 53 54 55 56 55 53 51 50 50 51 52 55 57 59 60 61 61 61 61 60 60 60 60 60 61 63 64 65 65 65 67 69 71 72 73 73 72 69 67 64 60 55 52 49 48 49 50 52 54 56 57 59 62 62 61 60 60 59 56 51 44 38 35 33
38 36 35 36 36 37 37 38 38 38 40 42 46 51 58 67 72 75 75 70 64 59 55 54 55 56 57 56 55 53 49 48 50 52 55 57 58 59 60 61 61 61 60 60 59 59 60 61 62 62 62 63 65 67 68 72 74 75 74 72 70 68 65 60 57 55 54 55 57 58 58 58 58 59 60 61 61 60 59 56 52 47 41 35 33 31
43 41 40 39 40 39 38 37 36 36 37 38 40 43 48 57 65 70 74 72 69 64 59 56 54 54 55 56 56 54 50 49 49 51 54 56 57 58 60 60 60 60 59 59 59 58 59 59 60 60 59 60 60 61 63 67 70 71 71 70 69 68 65 62 59 58 58 59 59 59 58 57 56 56 56 56 55 53 51 48 44 40 35 31 29 28
48 47 45 45 45 44 43 41 38 37 36 37 38 40 42 48 55 62 67 69 69 68 64 59 54 50 49 48 48 49 48 48 49 50 51 53 55 57 59 60 59 59 59 59 59 58 57 57 57 56 56 54 53 54 56 60 63 65 66 66 65 63 61 58 57 56 55 55 55 54 53 52 52 51 50 48 46 44 41 38 35 32 29 27 26 25
53 52 51 50 49 49 48 47 44 41 39 39 39 40 41 45 51 56 59 62 65 68 68 63 57 49 43 40 38 38 40 42 43 45 46 48 50 53 55 57 58 58 58 59 60 60 58 56 55 54 53 51 49 49 50 52 54 56 57 57 57 55 52 51 50 49 48 48 47 47 46 46 45 44 43 41 38 36 33 31 29 27 26 25 24 23
58 56 55 54 53 52 52 50 48 45 44 43 43 43 44 49 53 56 56 58 61 66 69 66 61 53 44 39 35 34 34 36 38 39 40 42 45 49 52 55 56 57 58 60 61 62 60 56 54 52 51 50 49 48 47 48 48 49 49 49 48 47 45 44 43 43 42 41 41 40 40 40 40 39 37 35 33 31 29 27 26 25 24 23 22 22
61 59 58 57 57 56 55 52 50 49 49 48 47 46 47 53 56 58 55 56 59 63 66 67 63 58 50 43 37 34 33 34 35 35 35 36 39 43 49 54 55 55 55 58 60 60 58 55 52 51 50 49 48 47 46 45 45 45 44 44 43 42 42 41 40 40 39 38 37 37 37 36 36 35 34 32 31 29 27 26 25 24 23 22 21 20
63 61 60 59 59 58 56 53 52 53 54 52 51 49 49 54 57 58 57 56 58 60 63 65 64 61 56 48 41 36 33 33 32 32 31 31 34 37 43 48 49 49 48 51 53 54 53 51 50 48 48 47 46 45 44 43 43 42 42 41 41 41 40 40 39 39 38 37 36 36 35 35 34 33 32 31 29 28 27 26 25 24 23 22 21 20
64 63 63 62 61 60 58 56 56 57 57 56 55 53 51 53 55 57 57 56 56 58 59 60 61 60 58 52 45 39 35 33 31 30 29 29 30 33 36 40 41 41 41 44 47 49 50 49 48 46 46 45 44 42 41 41 41 40 40 40 40 39 39 38 38 37 37 36 35 35 35 34 33 32 31 30 29 27 26 25 24 24 23 22 21 20
69 67 66 66 65 64 62 60 60 60 60 59 59 57 55 53 53 54 54 53 54 55 55 56 57 57 56 52 47 42 38 35 32 30 29 29 29 30 32 34 36 38 40 42 44 46 47 46 45 44 44 42 41 40 39 39 39 39 38 38 38 37 37 36 36 35 35 34 34 33 33 32 32 31 30 29 28 27 26 25 24 24 23 22 21 21
72 70 69 68 68 68 67 66 65 64 63 62 62 61 59 55 54 53 52 52 53 54 53 54 55 55 53 51 48 46 43 39 36 33 32 30 30 29 30 31 34 38 43 46 48 48 47 45 43 42 40 39 38 37 37 37 37 37 37 37 36 36 35 35 35 34 33 33 32 32 31 31 30 29 29 28 27 27 26 25 24 24 23 22 22 22
75 73 71 69 68 68 69 70 70 69 67 64 63 63 61 58 56 54 53 54 54 54 53 54 55 54 52 51 50 49 47 44 41 39 36 34 32 31 31 32 34 38 45 48 50 50 48 45 42 40 38 37 36 36 36 37 37 37 37 36 36 35 35 34 34 33 33 32 32 31 31 30 30 29 29 28 27 27 26 26 25 24 24 23 23 22
76 75 72 70 68 67 66 68 68 68 68 66 65 63 62 61 58 56 55 58 58 57 56 56 57 56 54 53 53 53 51 49 47 45 42 39 36 35 34 34 35 38 42 46 47 47 46 43 41 39 37 37 37 37 37 37 37 37 37 37 37 36 36 35 34 34 34 33 33 32 32 32 31 31 30 30 29 28 28 27 26 26 25 25 24 24
78 76 74 72 70 68 66 65 65 65 66 67 67 66 65 64 62 60 60 64 65 63 61 60 59 58 56 56 57 57 56 53 52 50 48 45 42 40 38 37 37 38 40 42 42 43 42 41 40 39 39 39 39 39 40 40 40 39 40 39 38 38 38 37 37 36 36 36 35 35 34 34 33 33 32 32 31 30 30 29 28 27 27 26 25 25
79 78 76 74 72 71 69 67 65 64 64 66 68 68 69 68 67 66 65 68 68 68 66 64 63 63 61 60 61 61 60 58 56 55 53 50 47 45 43 41 41 40 40 40 41 41 41 41 41 41 42 42 42 42 42 43 42 42 42 41 41 40 40 40 39 39 39 38 38 38 37 37 36 35 35 34 33 32 31 31 30 29 28 28 27 27
80 79 77 76 74 73 71 70 68 67 65 66 68 69 71 71 70 70 69 68 69 68 67 65 65 66 66 67 65 63 63 62 60 58 55 54 51 49 46 45 44 43 41 41 41 42 43 43 43 44 45 44 45 45 45 45 45 45 44 44 43 43 43 42 42 42 42 41 41 40 40 39 38 37 37 36 35 34 33 33 32 31 30 30 29 29
80 80 79 77 76 74 73 71 70 69 69 68 68 69 70 71 72 72 71 69 69 68 66 66 65 66 68 72 71 68 66 65 64 61 58 56 55 53 51 49 47 45 44 43 44 46 46 47 47 48 48 48 48 48 48 47 47 47 47 46 46 45 45 45 45 45 45 44 43 43 42 41 40 39 38 37 36 36 35 34 34 33 32 32 31 31
79 79 79 78 77 76 75 73 72 71 71 71 70 70 71 71 72 72 71 71 70 68 66 66 66 67 69 74 75 74 72 70 68 66 64 60 59 59 58 56 54 52 50 49 50 52 53 53 53 53 53 53 52 51 51 51 50 50 49 49 49 48 48 48 48 48 47 46 46 45 44 43 42 41 40 38 37 37 36 35 35 34 34 34 33 32
78 78 78 78 78 77 77 75 74 72 72 71 72 72 73 72 71 71 71 72 71 70 69 68 67 68 71 74 76 76 77 75 73 72 70 67 66 66 66 65 64 61 60 59 60 62 62 62 62 61 60 59 58 57 56 55 54 53 53 52 52 52 52 52 51 51 50 49 48 47 46 45 43 42 41 40 39 38 37 36 36 35 35 35 35 34
78 77 76 77 77 77 77 76 75 74 73 73 74 74 75 75 74 73 71 71 71 72 71 71 70 70 73 76 77 78 78 78 77 76 75 74 74 74 75 75 74 72 69 70 71 72 72 71 71 70 68 66 65 63 61 60 59 58 57 56 56 56 55 55 55 54 53 52 50 49 48 47 45 44 43 42 40 39 38 37 37 37 36 36 36 36
79 78 77 77 76 76 75 75 75 75 75 76 76 76 77 77 77 75 73 72 71 70 71 71 71 71 73 76 79 80 79 79 78 78 79 80 80 80 82 82 81 79 77 77 78 79 79 79 78 77 75 74 71 69 67 65 63 62 62 61 61 60 60 59 58 57 56 54 52 51 49 48 47 46 45 43 42 41 40 39 39 38 38 38 38 38
80 80 79 78 76 75 74 74 74 74 75 76 76 76 76 76 76 75 74 72 70 69 68 68 68 68 70 74 77 80 81 80 79 79 81 82 83 83 84 84 84 83 81 81 81 82 82 82 82 81 80 78 76 74 72 70 68 67 67 66 65 64 63 62 61 60 58 56 54 52 50 48 47 46 45 44 44 43 42 41 41 41 41 41 41 41
81 80 80 79 77 76 74 73 73 73 74 75 75 75 75 74 73 72 71 70 68 66 64 64 65 66 68 71 75 79 80 80 80 80 81 82 82 83 85 85 84 82 81 81 80 80 80 80 81 81 80 79 78 77 76 74 73 71 70 70 69 68 66 65 63 62 60 58 55 52 49 47 46 45 44 44 44 44 43 43 43 43 44 44 44 43
80 79 78 78 77 76 74 73 73 73 74 74 75 74 74 73 72 71 69 68 66 65 64 64 66 68 70 72 75 78 78 79 78 78 79 80 81 83 84 85 84 83 82 81 80 79 78 78 79 79 80 79 78 77 77 76 74 73 72 71 70 69 67 66 64 62 60 58 55 52 49 46 44 43 42 43 43 43 44 44 45 45 46 46 46 45
77 76 76 75 74 74 73 72 72 72 73 73 73 74 73 73 72 70 69 68 67 66 66 67 70 73 76 78 79 79 79 79 78 76 74 77 80 83 85 84 83 83 82 82 82 81 79 79 79 78 78 78 77 76 75 74 73 72 71 71 70 69 68 66 64 62 60 57 54 51 48 45 43 41 41 41 41 42 43 44 46 47 47 47 47 47
74 73 72 71 71 70 70 70 70 70 71 71 72 73 73 73 72 71 70 69 68 68 68 68 70 74 78 79 80 80 80 80 78 76 74 75 79 83 84 84 84 83 82 81 81 81 81 81 80 79 77 76 75 74 73 72 71 71 71 71 70 70 69 67 65 62 60 57 54 51 48 45 44 42 41 41 41 42 43 45 46 47 48 48 48 48
73 71 69 68 67 67 67 66 67 68 68 69 71 72 73 73 73 73 71 71 70 70 69 69 70 73 77 78 78 78 78 78 78 77 76 77 80 83 84 84 83 83 83 82 81 81 81 80 80 79 77 76 75 74 73 72 72 72 73 74 73 72 70 68 66 64 61 57 54 52 49 48 46 45 44 44 44 44 45 46 48 49 50 50 50 50
73 71 68 66 65 65 64 64 64 65 66 68 69 71 72 74 74 75 74 73 73 72 72 71 72 73 74 75 76 77 77 78 78 78 77 78 80 81 83 83 83 82 82 82 82 81 80 79 78 78 77 77 77 76 76 76 77 78 78 78 78 76 73 70 67 65 62 59 57 55 53 52 51 50 50 49 49 48 48 50 51 52 52 52 52 52
73 72 69 67 66 64 63 63 63 63 64 66 67 69 71 72 74 75 76 77 76 76 75 75 75 74 73 73 73 75 78 79 79 79 79 79 78 79 80 81 81 80 80 81 81 81 80 79 78 78 78 78 79 80 81 82 83 83 82 82 80 78 74 71 68 66 64 62 60 59 58 58 58 58 58 57 56 55 55 55 55 56 56 56 55 55
72 71 70 69 67 65 63 62 62 62 63 64 65 67 69 70 72 74 76 78 79 79 80 80 79 78 76 74 73 73 76 78 78 78 77 77 76 76 77 77 76 75 75 76 77 78 78 78 79 80 80 81 82 83 84 84 84 84 83 82 80 77 74 71 69 66 65 64 63 63 63 63 64 64 64 64 63 62 62 61 61 61 60 60 59 57
69 69 69 68 67 66 64 63 62 62 62 63 64 66 67 69 70 72 74 76 77 79 81 82 82 82 81 79 76 74 73 75 75 74 73 73 72 72 72 71 70 69 69 70 71 73 76 78 80 82 84 84 84 84 84 84 83 83 83 82 79 75 72 70 68 66 65 64 64 64 64 65 65 66 66 66 65 65 64 64 64 63 62 61 60 58
66 67 67 67 66 66 65 64 63 63 63 63 64 65 67 68 69 70 71 73 74 77 79 81 82 83 83 82 79 77 74 74 73 71 70 69 68 67 66 65 64 64 66 67 69 71 73 76 79 82 84 84 84 83 83 83 82 82 82 79 76 73 70 69 67 66 65 64 63 63 62 62 62 62 62 62 62 62 63 63 63 62 62 61 60 58
65 65 66 66 66 66 65 65 64 64 64 65 66 66 67 67 68 69 70 71 73 74 76 79 80 82 83 83 82 80 78 76 74 72 70 68 66 64 63 63 64 66 69 72 72 73 74 76 78 81 84 83 83 83 83 82 81 80 79 78 76 73 70 68 67 66 64 62 61 60 59 58 58 57 57 57 57 58 59 59 59 59 58 58 57 56
63 64 64 65 65 65 65 65 65 65 66 67 68 68 68 68 69 69 71 72 73 75 76 78 80 82 83 84 84 83 81 79 77 74 72 69 67 67 68 70 73 76 79 79 79 79 78 78 79 81 84 84 83 83 82 81 81 80 79 78 76 73 71 69 67 66 63 62 60 59 57 56 55 54 53 53 54 54 54 54 54 54 54 53 53 52
60 61 61 62 62 62 62 63 64 66 67 69 70 70 70 70 70 71 72 73 74 76 77 79 81 83 84 85 85 85 84 82 80 78 75 73 73 76 79 80 82 83 84 84 84 83 82 80 80 81 83 84 84 84 83 83 82 82 81 80 78 76 73 71 68 65 63 61 59 58 57 56 55 54 52 53 53 53 52 51 51 50 50 50 49 49
56 57 57 58 58 59 60 61 63 65 68 70 71 72 72 72 72 72 73 74 75 77 78 80 82 83 85 85 86 86 85 84 82 81 79 78 79 82 84 84 84 84 85 85 84 83 82 81 80 79 81 82 83 84 84 83 83 83 82 81 80 78 75 71 68 65 63 61 59 57 57 55 55 54 53 53 53 53 52 51 50 49 48 48 47 47
52 52 52 53 53 55 56 57 60 62 65 68 70 72 73 73 73 74 74 75 76 77 78 80 81 83 85 85 86 86 86 85 84 83 81 81 82 84 85 85 84 84 84 84 84 83 82 80 80 79 78 79 80 81 82 82 82 81 81 80 79 77 74 71 68 65 63 61 59 58 56 56 55 55 55 54 54 54 53 51 50 49 48 48 47 46
48 47 47 47 48 49 50 51 54 56 60 63 66 69 71 72 73 74 74 75 76 76 77 79 81 82 84 85 85 86 85 86 85 84 83 83 84 85 85 85 85 84 84 84 83 82 81 80 79 78 77 77 77 77 78 78 78 78 78 77 76 74 71 69 67 65 63 61 60 59 58 57 57 56 56 56 55 55 54 53 51 50 49 48 47 46
45 43 42 42 42 43 44 46 48 51 54 58 61 64 67 69 71 72 73 73 74 75 75 76 78 80 82 84 84 85 85 85 85 85 85 85 85 85 85 85 85 84 84 83 83 82 81 80 79 78 77 76 76 75 74 74 73 73 73 73 72 70 68 67 65 64 63 62 62 61 60 59 58 58 57 57 56 55 54 53 51 50 49 48 48 47
44 42 40 39 39 40 41 43 45 48 52 56 60 63 66 69 70 71 71 71 72 72 72 73 74 76 79 81 82 83 84 84 85 85 85 85 85 85 85 85 84 84 84 83 83 82 82 81 81 79 77 76 74 73 71 70 70 70 70 70 69 67 66 65 65 64 64 64 63 62 61 60 59 58 57 56 56 55 54 52 51 50 49 49 48 48
46 42 40 39 39 39 40 42 44 48 52 56 60 64 67 68 69 70 70 70 70 70 70 70 71 72 73 75 77 78 80 81 82 83 84 84 84 84 84 84 84 83 83 83 82 82 82 81 80 78 75 74 72 71 71 69 69 69 69 69 67 66 65 65 65 65 65 65 64 63 61 60 59 57 56 55 54 53 52 51 51 50 49 49 48 48
51 47 43 42 40 40 40 43 46 49 53 57 61 64 66 67 68 68 68 68 68 68 67 67 67 67 68 69 70 71 73 74 76 77 79 80 81 82 82 83 83 82 82 82 82 81 80 78 76 74 72 71 71 71 71 70 69 69 68 67 66 65 65 64 64 64 64 63 62 61 59 58 56 55 54 53 52 52 51 50 50 50 49 49 48 48
57 54 51 48 46 45 44 47 50 53 56 60 63 65 66 67 67 68 67 67 67 66 65 65 65 64 64 65 65 66 67 68 69 70 72 73 74 76 77 78 78 79 79 79 79 78 76 74 72 71 69 69 69 69 69 68 67 66 65 64 64 62 60 60 60 61 60 59 58 57 56 54 53 52 51 51 50 50 50 50 50 50 50 49 49 47
61 60 59 57 56 55 55 56 57 59 60 62 64 66 67 67 68 68 68 68 67 67 66 65 65 65 65 64 63 63 63 64 65 66 67 68 68 69 70 71 71 72 72 73 72 72 70 69 67 66 66 66 66 66 66 65 64 62 61 61 60 59 58 58 57 56 56 55 54 53 52 52 51 50 49 49 49 49 50 50 51 51 51 50 49 46
61 61 62 62 62 62 63 63 63 63 62 63 64 66 67 67 67 68 68 67 67 67 66 66 66 66 66 64 63 62 62 62 62 63 63 64 65 65 66 66 66 66 66 66 65 65 64 64 63 62 62 62 62 62 62 61 61 59 58 58 57 56 56 55 54 54 53 52 51 50 50 50 49 49 50 50 50 50 50 51 52 53 52 51 49 46
61 60 60 61 61 62 62 63 63 63 63 63 64 65 66 66 66 67 67 67 67 67 66 66 66 66 66 65 64 63 62 62 61 61 61 62 62 63 63 64 64 63 63 63 62 61 60 61 61 60 60 60 60 59 58 58 58 58 57 56 56 56 55 55 55 54 53 53 52 51 51 51 51 51 51 50 51 51 52 53 53 54 54 51 49 45
62 61 60 60 60 60 60 61 61 62 62 62 63 64 65 65 65 65 66 66 66 66 65 65 65 65 65 65 64 63 62 62 61 60 60 60 61 61 61 61 61 61 61 60 60 60 59 59 60 60 60 60 60 59 58 57 57 57 57 56 56 56 57 57 56 56 56 55 55 54 53 53 53 53 52 52 52 53 53 54 55 54 53 50 47 43
65 63 62 61 60 59 59 59 60 60 61 61 62 63 63 63 64 64 64 64 64 64 64 64 64 64 64 64 63 63 62 62 61 60 60 60 60 60 60 59 59 59 59 59 59 59 59 59 59 60 59 60 60 60 59 58 58 57 57 57 57 57 58 58 58 58 58 58 57 56 56 56 55 55 54 54 54 54 55 55 55 54 52 48 44 42
65 64 64 62 61 60 59 59 59 59 60 61 61 62 62 62 62 62 63 63 63 62 62 62 62 62 62 62 62 62 61 61 60 60 60 60 59 59 59 58 58 58 58 59 59 59 60 60 60 60 60 60 61 61 60 59 58 58 57 57 57 57 57 57 57 57 58 58 57 57 57 56 56 55 55 55 55 56 56 56 55 52 48 44 41 39
64 63 63 62 62 61 60 59 59 59 59 60 60 60 61 61 61 61 61 61 61 61 60 60 60 60 60 59 59 59 59 59 59 59 59 59 59 58 58 58 57 57 58 59 59 60 60 61 61 62 62 61 62 62 62 61 60 59 58 57 56 56 56 55 55 55 56 56 56 56 56 56 56 55 55 55 56 57 57 56 52 48 43 40 38 37